Date String (YYYY-MM-DD hh:mm:ss) UTC,Instrument flags,Ambient pressure (hPa),Sample flow (lpm),Bypass flow (lpm),Sample temperature (°C),Ambient temperature (°C),ASC tube jacket temperature (°C),LED temperature (°C),Box temperature (°C),Sample RH (%),Span deviation,Mass concentration (μg/m³),Mass concentration (μg/m³),Mass concentration (μg/m³)
DateTimeUTC,F1_M11,P_M11,Q1_M11,Q2_M11,T1_M11,T2_M11,T3_M11,T4_M11,T5_M11,U1_M11,ZSPAN_M11,X0_M11,X2_M11,X1_M11
2022-12-28 02:00:00,,0809.3,5.00,0.00,25.1,23.8,00.0,33.9,26.9,14.3,0000.0,0002.56,0001.02,0000.71
2022-12-28 02:01:00,,0809.4,5.00,0.00,25.1,23.8,00.0,34.0,26.9,14.5,0000.0,0002.52,0001.00,0000.72
2022-12-28 02:02:00,,0809.4,4.99,0.00,25.1,23.9,00.0,34.0,26.9,14.4,0000.0,0002.64,0001.02,0000.73
2022-12-28 02:03:00,,0809.4,5.00,0.00,25.1,23.9,00.0,34.0,26.9,14.5,0000.0,0003.85,0001.03,0000.73
2022-12-28 02:04:00,,0809.5,5.01,0.00,25.1,23.9,00.0,34.0,26.9,14.5,0000.0,0004.06,0001.03,0000.74
2022-12-28 02:05:00,,0809.5,5.00,0.00,25.1,23.9,00.0,34.0,26.9,14.6,0000.0,0003.27,0001.03,0000.75
2022-12-28 02:06:00,,0809.4,5.01,0.00,25.1,23.9,00.0,34.0,26.9,14.6,0000.0,0003.06,0000.99,0000.75
2022-12-28 02:07:00,,0809.4,5.00,0.00,25.1,23.9,00.0,34.0,26.9,14.8,0000.0,0003.27,0001.00,0000.75
2022-12-28 02:08:00,,0809.4,5.00,0.00,25.1,23.9,00.0,34.0,26.9,14.8,0000.0,0003.89,0001.04,0000.74
2022-12-28 02:09:00,,0809.3,5.00,0.00,25.1,23.8,00.0,34.0,26.9,15.2,0000.0,0003.97,0001.04,0000.73
2022-12-28 02:10:00,,0809.2,5.00,0.00,25.1,23.9,00.0,34.0,27.0,15.5,0000.0,0004.07,0001.05,0000.71
2022-12-28 02:11:00,,0809.2,5.00,0.00,25.1,23.9,00.0,34.0,27.0,15.7,0000.0,0004.14,0001.05,0000.69
2022-12-28 02:12:00,,0809.2,5.00,0.00,25.1,23.9,00.0,34.0,27.0,15.8,0000.0,0004.15,0001.04,0000.66
2022-12-28 02:13:00,,0809.2,5.01,0.00,25.2,23.9,00.0,34.0,27.0,15.7,0000.0,0004.06,0001.02,0000.64
2022-12-28 02:14:00,,0809.1,5.01,0.00,25.2,23.9,00.0,34.0,27.0,15.7,0000.0,0003.35,0000.99,0000.61
2022-12-28 02:15:00,,0809.1,5.01,0.00,25.2,24.0,00.0,34.0,27.0,15.8,0000.0,0002.57,0000.95,0000.58
2022-12-28 02:16:00,,0809.0,5.00,0.00,25.2,24.0,00.0,34.0,27.1,15.7,0000.0,0002.61,0000.92,0000.55
2022-12-28 02:17:00,,0809.0,5.00,0.00,25.2,24.0,00.0,34.1,27.1,15.7,0000.0,0002.71,0000.89,0000.53
2022-12-28 02:18:00,,0809.1,5.00,0.00,25.2,24.1,00.0,34.1,27.1,15.7,0000.0,0004.25,0000.89,0000.51
2022-12-28 02:19:00,,0809.1,4.99,0.00,25.2,24.1,00.0,34.1,27.1,15.9,0000.0,0003.82,0000.80,0000.47
2022-12-28 02:20:00,,0809.2,5.00,0.00,25.2,24.0,00.0,34.1,27.1,15.8,0000.0,0003.65,0000.73,0000.45
2022-12-28 02:21:00,,0809.2,4.99,0.00,25.2,23.9,00.0,34.1,27.1,15.9,0000.0,0003.57,0000.69,0000.44
2022-12-28 02:22:00,,0809.1,5.00,0.00,25.2,23.7,00.0,34.1,27.0,16.1,0000.0,0003.82,0000.69,0000.43
2022-12-28 02:23:00,,0809.1,5.00,0.00,25.2,23.7,00.0,34.1,27.0,16.1,0000.0,0003.86,0000.69,0000.43
2022-12-28 02:24:00,,0809.0,5.00,0.00,25.2,23.7,00.0,34.1,27.0,16.1,0000.0,0004.19,0000.70,0000.44
2022-12-28 02:25:00,,0809.0,5.00,0.00,25.2,23.8,00.0,34.1,27.1,16.0,0000.0,0004.25,0000.70,0000.43
2022-12-28 02:26:00,,0808.9,5.01,0.00,25.2,23.8,00.0,34.1,27.1,16.0,0000.0,0004.23,0000.69,0000.43
2022-12-28 02:27:00,,0808.9,5.00,0.00,25.2,23.9,00.0,34.1,27.1,15.9,0000.0,0004.08,0000.69,0000.43
2022-12-28 02:28:00,,0808.9,5.00,0.00,25.2,23.9,00.0,34.1,27.1,15.9,0000.0,0004.52,0000.69,0000.42
2022-12-28 02:29:00,,0808.9,5.00,0.00,25.2,23.9,00.0,34.1,27.1,15.9,0000.0,0003.12,0000.65,0000.41
2022-12-28 02:30:00,,0808.9,5.00,0.00,25.2,23.8,00.0,34.1,27.1,15.9,0000.0,0002.85,0000.66,0000.41
2022-12-28 02:31:00,,0808.9,5.00,0.00,25.2,23.8,00.0,34.1,27.1,15.8,0000.0,0002.91,0000.69,0000.42
2022-12-28 02:32:00,,0808.9,4.99,0.00,25.2,23.8,00.0,34.1,27.1,15.8,0000.0,0003.01,0000.71,0000.42
2022-12-28 02:33:00,,0808.9,4.99,0.00,25.2,23.7,00.0,34.1,27.0,15.8,0000.0,0002.75,0000.70,0000.43
2022-12-28 02:34:00,,0808.9,4.99,0.00,25.2,23.7,00.0,34.1,27.0,15.9,0000.0,0002.73,0000.71,0000.43
2022-12-28 02:35:00,,0808.9,5.00,0.00,25.2,23.8,00.0,34.1,27.1,15.9,0000.0,0002.37,0000.70,0000.43
2022-12-28 02:36:00,,0808.9,5.01,0.00,25.2,23.8,00.0,34.1,27.0,15.9,0000.0,0002.38,0000.70,0000.44
2022-12-28 02:37:00,,0808.8,5.00,0.00,25.2,23.7,00.0,34.1,27.0,15.9,0000.0,0002.41,0000.69,0000.44
2022-12-28 02:38:00,,0808.8,5.00,0.00,25.2,23.8,00.0,34.1,27.0,16.1,0000.0,0002.40,0000.68,0000.44
2022-12-28 02:39:00,,0808.8,5.00,0.00,25.2,23.9,00.0,34.1,27.0,16.1,0000.0,0001.71,0000.69,0000.45
2022-12-28 02:40:00,,0808.8,5.00,0.00,25.2,24.0,00.0,34.1,27.1,16.4,0000.0,0001.50,0000.69,0000.46
2022-12-28 02:41:00,,0808.9,4.98,0.00,25.2,24.0,00.0,34.1,27.1,16.2,0000.0,0001.49,0000.68,0000.46
2022-12-28 02:42:00,,0808.9,5.00,0.00,25.3,24.1,00.0,34.1,27.1,16.1,0000.0,0001.43,0000.66,0000.47
2022-12-28 02:43:00,,0808.9,4.99,0.00,25.3,24.1,00.0,34.1,27.1,15.9,0000.0,0001.26,0000.64,0000.47
2022-12-28 02:44:00,,0808.9,4.98,0.00,25.3,24.1,00.0,34.1,27.1,15.9,0000.0,0001.18,0000.64,0000.46
2022-12-28 02:45:00,,0808.9,4.99,0.00,25.3,24.1,00.0,34.1,27.1,15.9,0000.0,0001.17,0000.62,0000.46
2022-12-28 02:46:00,,0808.9,5.00,0.00,25.3,24.0,00.0,34.1,27.1,15.9,0000.0,0001.15,0000.61,0000.45
2022-12-28 02:47:00,,0808.9,5.01,0.00,25.3,24.0,00.0,34.2,27.1,16.0,0000.0,0001.15,0000.64,0000.45
2022-12-28 02:48:00,,0808.8,5.01,0.00,25.3,24.0,00.0,34.2,27.1,16.0,0000.0,0001.18,0000.65,0000.44
2022-12-28 02:49:00,,0808.7,5.01,0.00,25.3,23.9,00.0,34.2,27.1,15.9,0000.0,0001.20,0000.64,0000.44
2022-12-28 02:50:00,,0808.7,4.99,0.00,25.3,23.8,00.0,34.2,27.1,16.0,0000.0,0001.16,0000.62,0000.43
2022-12-28 02:51:00,,0808.6,4.99,0.00,25.2,23.7,00.0,34.2,27.1,16.0,0000.0,0001.08,0000.60,0000.43
2022-12-28 02:52:00,,0808.7,5.00,0.00,25.2,23.7,00.0,34.2,27.0,16.1,0000.0,0001.03,0000.58,0000.42
2022-12-28 02:53:00,,0808.7,5.00,0.00,25.2,23.8,00.0,34.2,27.1,16.1,0000.0,0001.00,0000.56,0000.40
2022-12-28 02:54:00,,0808.7,5.00,0.00,25.2,23.8,00.0,34.2,27.1,16.1,0000.0,0001.00,0000.55,0000.37
2022-12-28 02:55:00,,0808.6,5.01,0.00,25.2,23.9,00.0,34.2,27.1,16.1,0000.0,0000.90,0000.50,0000.35
2022-12-28 02:56:00,,0808.6,4.99,0.00,25.2,23.9,00.0,34.2,27.1,16.1,0000.0,0000.83,0000.46,0000.33
2022-12-28 02:57:00,,0808.7,5.00,0.00,25.3,23.9,00.0,34.2,27.1,16.4,0000.0,0001.63,0000.44,0000.33
2022-12-28 02:58:00,,0808.7,4.99,0.00,25.2,23.8,00.0,34.2,27.1,16.4,0000.0,0002.07,0000.43,0000.34
2022-12-28 02:59:00,,0808.8,5.01,0.00,25.2,23.7,00.0,34.2,27.0,16.3,0000.0,0002.02,0000.45,0000.38
